Theta_e
298 298 299 302 304 305 305 304 307 307 308 309 313 313 315 314 315 315 315 314 313 311 311 310 308 317 327 327 317 330 334 337 338 339 340 341 340 340 339 337 336 335 335 335
296 299 301 300 298 299 304 304 307 309 310 311 310 310 311 312 314 314 314 314 312 311 310 310 310 311 313 326 326 320 332 335 337 338 339 339 339 339 337 335 335 334 334 334
295 298 298 296 301 301 302 307 307 307 306 305 309 309 311 311 313 315 313 313 311 310 309 310 310 310 312 324 325 325 319 333 336 337 338 338 338 338 336 334 334 333 333 334
294 298 291 298 298 300 303 305 306 306 306 306 307 309 309 309 314 314 311 311 311 310 309 309 309 311 316 323 324 325 325 330 337 337 337 338 337 336 336 334 334 333 333 333
292 296 299 300 303 303 304 305 306 306 306 306 307 309 310 307 313 312 311 310 311 309 309 309 310 310 312 312 320 323 323 330 335 337 338 337 337 336 335 334 334 334 333 332
293 300 296 298 304 304 306 306 306 305 306 305 308 309 307 307 307 311 311 310 309 310 309 309 310 309 308 308 309 318 320 323 328 334 337 336 335 335 334 334 333 332 330 331
297 298 299 300 303 304 306 307 303 304 306 305 307 307 307 306 307 309 310 309 308 308 308 310 310 308 307 307 307 316 320 322 324 325 329 333 333 333 332 330 329 326 326 325
300 296 295 303 300 303 304 303 304 305 305 305 304 304 303 303 302 305 309 309 308 308 308 307 307 307 307 307 307 313 318 319 321 322 323 324 327 325 326 325 321 318 318 315
300 299 298 299 299 300 302 303 304 303 303 303 302 302 302 301 301 301 300 301 307 308 309 309 307 306 307 307 308 309 313 316 318 319 320 320 321 317 316 315 312 307 308 306
301 299 299 298 299 300 302 303 304 303 300 300 300 300 300 300 299 300 299 300 300 300 304 309 309 307 308 307 306 308 309 312 315 317 317 317 316 315 314 310 306 304 302 300
298 297 297 299 301 298 298 301 300 299 299 298 298 298 298 298 298 298 299 298 299 299 299 300 300 304 303 306 308 308 310 309 311 314 315 314 313 312 312 311 312 308 306 305
297 296 296 297 297 298 299 298 298 297 297 296 296 296 296 296 296 297 296 297 297 297 297 298 298 299 299 301 302 306 310 310 310 313 314 313 311 309 309 310 311 310 310 311
296 296 297 296 296 297 297 296 295 295 295 295 295 294 294 294 294 294 294 294 295 295 295 295 296 296 297 297 298 301 309 310 311 313 313 313 311 308 303 304 304 306 306 307
296 296 295 296 296 295 294 294 294 294 294 293 293 292 292 292 292 292 292 292 292 292 292 293 293 294 295 296 297 299 300 307 311 312 311 311 310 310 308 303 299 301 301 301
298 296 295 294 294 293 293 292 292 292 292 291 291 290 290 290 290 290 290 290 290 290 290 291 291 291 292 294 296 297 297 298 302 308 310 311 310 309 306 303 302 300 298 298
294 296 296 294 293 291 291 291 291 291 290 290 289 290 290 290 290 290 290 290 290 290 289 290 289 290 291 292 293 294 295 297 297 298 303 305 307 305 303 301 298 296 295 294
293 294 292 292 292 292 292 292 292 290 290 290 290 290 290 289 289 289 289 288 288 288 289 289 289 289 290 291 291 292 293 294 295 296 297 301 303 303 303 301 298 296 296 296
292 291 292 291 292 292 292 291 290 290 290 290 289 289 289 289 288 288 288 288 288 288 288 288 288 289 289 290 291 291 292 292 293 294 295 298 301 303 302 301 299 297 296 295
292 292 291 291 291 291 291 290 290 290 289 289 289 289 289 288 288 288 288 288 288 288 288 288 288 288 289 290 292 291 291 292 292 293 294 296 300 301 302 300 299 298 296 293
291 291 291 291 290 290 290 289 289 288 288 288 288 288 288 288 287 287 287 288 288 288 288 288 288 288 288 288 289 292 291 291 292 293 293 295 298 300 300 301 299 297 295 293
291 290 290 290 290 290 289 288 288 287 287 287 287 287 287 287 287 287 287 288 288 287 287 287 287 287 288 288 288 290 292 292 292 293 294 294 297 299 299 299 298 296 295 294
290 290 289 289 289 289 289 288 287 287 287 286 286 286 286 286 286 286 287 287 287 287 287 288 288 287 288 288 288 288 290 292 292 293 293 294 295 297 298 298 298 296 295 294
289 290 289 289 289 289 288 288 288 287 287 286 285 285 285 285 286 286 287 287 287 287 287 288 288 288 288 287 287 288 288 289 291 292 294 295 296 296 297 297 296 296 294 294
287 289 289 289 289 288 280 286 288 287 287 286 286 285 286 286 286 286 287 287 287 287 287 287 287 288 288 288 288 287 288 288 289 291 292 294 296 296 296 296 296 295 295 295
285 288 289 288 288 288 285 286 287 287 287 287 286 286 286 286 285 286 286 286 287 287 287 287 288 288 288 288 288 288 288 288 288 289 291 292 294 295 296 295 296 295 294 293
286 285 283 283 286 284 284 286 287 287 287 287 287 286 285 285 285 286 286 287 287 287 287 287 287 288 288 288 288 288 289 288 288 289 289 290 292 294 295 296 296 295 295 294
281 281 280 280 281 281 281 282 283 286 287 287 287 286 285 285 285 286 287 287 287 287 287 287 287 287 288 288 288 288 288 289 289 289 289 290 290 292 293 295 295 295 295 294
Wind_Speed
11 18 19 17 17 18 15 15 8 11 18 19 12 13 10 10 9 10 11 14 15 14 12 13 12 17 13 14 22 29 30 34 38 41 42 41 40 38 38 37 40 38 35 35
17 13 8 18 19 17 9 6 8 12 15 6 14 14 10 8 11 9 9 10 11 12 15 17 14 19 20 12 18 24 27 31 34 35 35 38 38 36 36 35 35 38 37 37
7 7 14 9 3 6 12 4 3 6 13 14 9 10 9 9 6 6 7 9 10 11 11 12 21 26 23 17 14 18 24 26 30 30 30 32 33 33 32 35 33 34 34 36
5 3 3 6 12 5 10 9 10 14 19 15 10 11 10 9 2 2 8 9 8 8 9 19 25 29 27 20 22 15 11 21 26 27 28 29 30 32 31 30 35 34 34 36
2 3 9 11 2 4 7 8 11 17 19 20 5 5 6 6 1 5 3 5 4 7 12 19 26 28 26 28 23 21 19 5 10 23 25 26 27 28 29 28 28 29 31 32
1 4 5 4 10 14 8 3 16 16 17 18 2 3 5 6 6 3 2 2 2 7 15 22 22 25 23 24 25 22 20 12 4 10 23 23 24 26 26 27 26 29 30 35
6 4 6 4 10 11 2 5 18 18 17 14 7 4 8 6 6 1 4 3 2 10 12 12 18 21 19 22 24 25 18 14 11 7 8 19 23 25 26 25 25 26 29 28
3 3 5 2 8 4 3 4 11 17 13 13 11 6 7 6 7 6 5 3 2 3 5 10 14 18 16 17 25 27 20 13 9 8 6 7 15 19 24 26 25 24 23 20
3 4 5 7 5 10 6 6 8 13 15 8 8 9 9 10 10 10 9 10 4 7 6 2 11 18 15 15 22 26 26 18 11 5 4 3 8 13 17 19 21 19 21 19
3 4 6 9 8 4 7 10 9 9 6 8 6 8 10 9 9 9 8 9 16 16 5 9 7 5 17 21 15 15 17 22 16 9 2 1 4 8 13 15 17 17 17 18
11 15 9 4 2 9 13 5 5 7 7 9 9 9 8 8 10 10 10 15 14 12 12 14 19 11 12 22 23 13 9 9 13 12 7 3 3 6 8 11 17 22 22 23
9 11 6 8 4 7 5 5 7 7 9 8 7 8 10 8 8 10 12 17 15 14 15 17 20 21 24 22 19 23 14 11 3 4 9 8 8 5 6 9 11 13 16 21
12 10 13 12 4 3 2 5 6 6 5 7 7 7 10 10 11 16 15 16 15 17 20 21 21 22 23 27 28 22 21 18 12 13 12 15 13 11 9 4 7 9 13 17
10 7 5 5 3 4 3 4 6 5 4 5 6 10 11 9 14 14 13 18 20 21 21 21 21 22 29 29 26 26 24 16 14 13 14 16 19 19 17 15 12 12 13 18
4 4 3 5 6 7 8 7 8 6 6 6 8 6 9 9 10 14 21 22 21 19 19 21 22 23 25 26 24 26 30 27 17 16 17 17 18 20 20 18 17 17 16 17
7 6 5 6 6 6 6 7 7 9 10 9 8 8 13 16 17 19 21 21 20 15 25 23 21 23 25 25 27 30 28 29 25 20 18 18 20 21 19 18 18 19 19 20
4 4 7 7 7 9 10 10 10 8 10 11 13 17 18 18 18 18 19 21 23 26 28 27 26 26 26 27 28 28 29 28 30 28 22 17 18 21 21 19 18 20 23 27
1 3 3 5 7 7 8 8 9 10 10 14 17 17 17 15 14 17 22 24 25 26 28 29 28 28 27 25 25 25 27 28 25 24 25 21 20 22 22 22 21 19 19 26
3 5 4 5 7 8 7 9 11 14 15 15 15 12 18 20 19 21 23 22 21 18 27 29 32 34 30 25 27 25 25 26 26 25 22 22 21 22 22 22 22 23 24 25
5 5 8 7 8 9 7 11 14 14 16 17 16 15 13 20 21 23 24 19 25 26 31 33 34 33 34 30 27 26 23 24 25 24 21 22 22 23 25 26 24 24 25 26
5 8 9 10 10 11 12 10 12 13 17 16 14 14 17 22 23 24 18 10 30 29 31 33 30 30 31 29 26 26 22 22 23 23 23 22 22 24 24 23 24 25 26 28
4 4 6 10 9 8 15 15 16 15 17 19 17 19 19 20 22 25 22 21 33 33 31 30 30 31 31 33 29 25 25 22 21 21 21 23 24 23 24 24 25 27 29 30
7 8 11 10 8 8 14 17 15 15 13 17 18 19 18 20 21 14 13 26 25 28 31 32 34 35 34 32 28 26 24 23 22 20 20 21 23 25 24 25 27 29 29 30
10 12 10 16 15 7 4 15 14 16 17 16 17 19 20 21 23 22 25 30 33 32 32 31 31 33 32 29 26 26 25 23 21 20 20 23 26 25 25 26 27 27 28 30
13 13 11 9 7 6 13 16 14 14 15 16 17 19 21 24 20 28 26 28 30 31 29 29 30 30 27 25 24 24 25 24 23 21 21 21 22 24 26 26 27 28 28 29
7 5 10 12 9 12 13 14 11 16 16 15 16 19 23 25 23 22 24 25 27 28 27 28 26 25 24 22 21 22 23 24 25 25 24 22 23 24 24 27 28 31 31 30
9 6 11 12 12 13 14 16 15 14 17 17 17 22 26 27 24 24 25 24 25 26 28 27 26 25 23 21 18 17 18 22 25 25 25 26 25 23 26 28 30 31 31 31
Wind_Direction
275 305 289 285 284 297 281 266 260 311 308 301 319 331 336 349 357 8 13 20 26 21 9 13 5 355 336 302 259 233 214 206 207 209 210 209 212 212 211 208 206 207 200 205
295 280 315 311 302 299 294 259 253 283 299 293 313 316 323 359 351 4 9 14 15 11 7 12 0 354 344 318 287 256 233 219 214 211 205 205 206 206 204 202 199 201 199 201
276 323 322 310 223 291 316 265 246 288 289 281 291 301 324 328 323 2 9 10 13 4 2 2 357 345 338 331 315 279 244 228 214 206 200 202 202 200 196 198 195 197 197 197
269 325 342 250 306 265 359 19 357 329 325 286 276 291 321 297 206 79 31 15 6 357 1 1 357 352 352 360 8 338 264 227 206 195 193 192 195 199 199 193 195 197 198 200
214 221 286 294 36 345 359 309 5 346 332 335 303 319 289 289 163 130 121 34 23 357 359 15 6 356 1 11 9 9 352 318 208 191 186 181 186 190 195 191 194 194 195 194
132 242 233 266 343 327 326 230 348 332 324 332 332 350 295 319 354 115 101 101 352 36 19 21 359 1 3 7 5 357 342 345 344 189 175 176 181 183 184 188 188 185 187 196
219 257 286 280 330 313 172 349 313 316 317 321 312 258 286 311 298 242 216 184 83 60 58 16 4 356 3 5 4 359 345 338 355 39 142 176 174 176 175 174 175 176 184 190
185 211 291 207 348 360 259 288 306 308 311 308 303 320 359 15 10 325 310 230 188 78 101 68 17 0 356 1 1 3 7 359 1 4 49 124 157 159 167 170 164 168 169 171
213 242 268 310 218 274 224 253 301 302 325 324 16 360 11 14 20 19 9 3 246 234 286 15 47 13 328 330 350 359 5 4 4 14 32 90 151 151 149 160 155 155 156 154
269 254 255 279 294 263 289 278 282 306 340 355 9 3 7 6 4 8 15 13 6 17 314 292 268 342 319 315 312 325 2 4 353 351 354 157 158 172 164 160 156 155 155 149
269 286 302 278 312 344 321 350 12 360 9 340 353 358 356 350 353 347 353 356 2 1 354 349 360 317 330 296 286 273 289 346 354 333 308 262 197 202 193 198 197 184 192 184
269 282 243 283 302 329 337 358 4 352 340 343 357 348 347 344 346 346 338 342 345 348 341 335 335 331 331 340 342 306 235 212 245 307 288 259 224 194 209 226 233 237 234 218
272 280 282 284 235 73 52 1 341 332 333 330 333 340 339 334 338 333 334 334 336 330 324 323 322 316 321 325 325 324 293 280 228 206 212 229 230 206 154 134 184 216 227 232
292 293 305 16 22 27 21 334 332 313 320 327 324 330 331 332 333 331 327 323 321 319 315 313 313 310 320 323 319 313 314 297 256 226 220 216 217 219 212 181 165 178 203 217
335 7 28 343 349 349 352 352 339 332 333 332 342 333 337 332 327 322 321 321 319 317 316 321 319 315 317 314 305 307 308 309 296 266 237 227 223 219 217 206 194 190 184 200
338 311 352 358 338 325 318 316 317 331 337 338 333 333 330 324 319 317 318 321 324 320 316 312 305 305 304 303 297 297 295 292 294 289 267 240 221 211 205 199 184 183 181 182
339 347 346 338 332 327 323 321 323 322 319 324 324 322 321 321 318 317 318 319 316 311 306 303 303 303 296 289 283 276 278 279 282 283 277 242 224 217 206 197 193 188 190 197
313 277 311 324 311 320 316 330 321 322 318 313 316 320 321 322 319 313 314 315 312 307 307 304 306 304 303 290 275 266 266 271 267 261 262 250 231 223 214 206 200 197 193 196
355 334 334 335 326 318 316 317 317 311 312 314 315 314 311 313 313 312 312 309 305 305 305 305 305 304 296 296 287 266 253 251 254 256 251 244 234 229 219 204 201 198 190 186
315 319 323 320 321 319 305 310 311 315 316 310 307 305 309 314 317 312 311 299 293 290 295 296 298 295 293 295 289 275 256 241 238 243 241 237 227 224 221 209 198 194 187 186
306 318 321 324 323 321 313 322 314 312 315 311 307 309 308 309 311 307 307 305 301 302 298 297 294 287 284 286 288 281 264 250 240 243 242 234 227 219 214 203 195 191 189 191
298 294 303 315 306 308 326 325 319 311 321 320 313 314 310 307 313 309 300 288 296 302 303 302 297 291 284 283 280 277 274 262 244 230 235 234 227 222 218 213 204 195 191 195
276 283 305 304 296 293 316 315 317 317 311 315 314 309 306 302 302 301 303 307 304 300 300 298 294 293 287 280 274 269 264 263 261 243 235 235 231 224 212 203 203 198 188 192
301 298 293 308 310 299 312 312 305 306 303 307 311 309 305 302 303 297 294 299 308 309 306 304 299 296 292 283 274 264 258 255 251 244 232 230 226 216 209 203 198 199 196 198
306 299 297 314 318 312 308 309 305 299 298 296 298 320 310 303 287 300 303 305 307 306 308 309 305 303 297 284 275 267 255 249 248 247 234 227 222 205 201 200 200 201 198 196
334 346 336 329 316 328 320 318 311 308 306 308 310 318 317 315 310 307 312 310 314 317 317 313 311 311 304 294 283 274 260 247 241 235 235 231 224 216 206 203 202 200 201 204
339 346 349 340 343 342 332 322 314 310 311 309 311 318 323 324 320 318 323 325 326 325 325 322 322 322 320 315 310 299 278 258 241 234 228 224 226 222 216 211 208 207 206 204